Regional Weather Roundup
Issued by NWS Sioux Falls, SD

Home | Current Version | Previous Version | Graphics & Text | Print | Product List | Glossary Off
Versions: 1 2 3 4 5 6 7 8 9 10 11 12 13 14 15 16 17 18 19 20 21 22 23 24 25 26 27 28 29 30 31 32 33 34 35 36 37 38 39 40 41 42 43 44 45 46 47 48 49 50

000
ASUS43 KFSD 280702
RWRFSD

WEATHER ROUNDUP FOR SE SOUTH DAKOTA/SW MINNESOTA/NW IOWA
NATIONAL WEATHER SERVICE SIOUX FALLS SD
200 AM CDT SAT MAR 28 2015

NOTE: "FAIR" INDICATES FEW OR NO CLOUDS BELOW 12,000 FEET WITH NO
SIGNIFICANT WEATHER AND OR OBSTRUCTIONS TO VISIBILITY.


SDZ038>040-050-052>070-280800-
SOUTHEAST SOUTH DAKOTA

CITY           SKY/WX    TMP DP  RH WIND       PRES   REMARKS
CHAMBERLAIN    NOT AVBL
HURON          CLEAR     28  24  85 SE9       30.04R WCI  19
MADISON        CLOUDY    28  28 100 SE13      30.05S WCI  18
MITCHELL       CLEAR     28  24  85 SE9       30.04S WCI  19
SIOUX FALLS    CLOUDY    30  23  75 SE14      30.08R WCI  19
WINNER         CLOUDY    38  30  73 CALM      29.97S
YANKTON        CLOUDY    30  23  74 SE9       30.07R WCI  22
$$

MNZ071-072-080-081-089-090-097-098-280800-
SOUTHWEST MINNESOTA

CITY           SKY/WX    TMP DP  RH WIND       PRES   REMARKS
FAIRMONT       CLOUDY    28  19  69 SE9       30.15R WCI  20
JACKSON        FLURRIES  30  27  86 CALM      30.14R
LUVERNE        CLOUDY    30  27  86 SE8       30.11R WCI  23
MARSHALL       CLOUDY    28  21  74 S6        30.14R WCI  22
MONTEVIDEO     CLOUDY    28  25  86 S5        30.15S WCI  23
PIPESTONE      CLOUDY    28  27  93 SE9       30.08R WCI  20
REDWOOD FALLS  CLOUDY    30  25  81 SW5       30.15R WCI  25
TRACY          CLOUDY    28  27  93 SE3       30.13R
WINDOM         FLURRIES  27  27 100 CALM      30.14R
WORTHINGTON    CLOUDY    27  23  86 SE7       30.12S WCI  19
$$

IAZ001>003-012>014-020>022-031-032-NEZ013-014-SDZ071-280800-
NORTHWEST IOWA

CITY           SKY/WX    TMP DP  RH WIND       PRES   REMARKS
ESTHERVILLE    CLOUDY    29  25  85 CALM      30.13R
SIOUX CITY     CLOUDY    34  23  64 E9        30.10S WCI  27
SPENCER        CLOUDY    29  25  85 E3        30.13S
$$

ABBREVIATIONS USED IN REMARKS
   TC - TEMPERATURE IN CELSIUS
  WCI - WIND CHILL INDEX
   HX - HEAT INDEX
  VSB - VISIBILITY



USA.gov is the U.S. government's official web portal to all federal, state and local government web resources and services.